Location: Buch
(50.1863°N, 11.0141°E)
Time: 01:33:42
(UTC+00:00)

Cosmos 1908 - Pass Details

Date: 18 January 2020
Orbit: 511 x 532 km, 82.5° (Epoch: 22 February)

Event Time Altitude Azimuth Distance (km) Brightness Sun altitude
Rises 05:24:30 0° 175° (S) 2,664 7.1 -16.0°
Reaches altitude 10° 05:26:40 10° 169° (S) 1,780 6.2 -15.6°
Maximum altitude 05:30:27 49° 95° (E) 698 4.3 -15.0°
Drops below altitude 10° 05:34:15 10° 20° (NNE) 1,794 6.0 -14.5°
Sets 05:36:27 0° 15° (NNE) 2,688 6.8 -14.1°
